Home   Weather   Tiraspol   Past weeks

Flag for Moldova Past Weather in Tiraspol, Moldova — Yesterday and Last 2 Weeks

Now
70 °F

Passing clouds.


Feels Like: 70 °F
Forecast: 69 / 91 °F
Wind: 6 mph from Southeast

Location: Chisinau International Airport

Current Time: Jul 24, 2017 at 11:53:13 pm

Latest Report: Jul 24, 2017 at 11:00 pm


Visibility: N/A

Pressure: 29.77 "Hg

Humidity: 88%

Dew Point: 66 °F

Location of TiraspolLocation

Past Weather in Tiraspol — Graph

°F

Tiraspol Temperature Yesterday

Maximum temperature yesterday: 90 °F (at 5:30 pm)
Minimum temperature yesterday: 70 °F (at 5:30 am)
Average temperature yesterday: 81 °F

High & Low Weather Summary for the Past Weeks

 TemperatureHumidityPressure
High93 °F (Jul 22, 4:00 pm)100% (Jul 13, 5:00 am)30.15 "Hg (Jul 13, 5:00 am)
Low48 °F (Jul 15, 5:30 am)26% (Jul 21, 4:00 pm)29.68 "Hg (Jul 13, 5:30 pm)
Average74 °F57%29.96 "Hg
* Reported Jul 9 11:00 pm — Jul 24 11:00 pm, Tiraspol. Weather by CustomWeather, © 2017

Note: Actual official high and low records may vary slightly from our data, if they occured in-between our weather recording intervals... More about our weather records

Advertising

Tiraspol Weather History for the Previous 24 Hours

Scroll right to see more
 ConditionsComfort  
Time TempWeatherWind HumidityBarometerVisibility
11:00 pm
Mon, Jul 24
70 °FPassing clouds.6 mph88%29.77 "HgN/A
10:30 pm72 °FPassing clouds.3 mph83%29.77 "HgN/A
10:00 pm73 °FPassing clouds.3 mph74%29.77 "HgN/A
9:30 pm73 °FPassing clouds.1 mph74%29.77 "HgN/A
9:00 pm75 °FPassing clouds.2 mph69%29.80 "HgN/A
8:30 pm75 °FScattered clouds.8 mph65%29.80 "HgN/A
8:00 pm75 °FScattered clouds.12 mph74%29.80 "HgN/A
7:30 pm77 °FScattered clouds.9 mph65%29.80 "HgN/A
7:00 pm77 °FThundershowers. Scattered clouds.No wind57%29.77 "HgN/A
6:30 pm77 °FThundershowers. Scattered clouds.8 mph57%29.77 "HgN/A
6:00 pm77 °FThundershowers. Scattered clouds.16 mph61%29.77 "HgN/A
5:30 pm75 °FScattered clouds.23 mph65%29.77 "HgN/A
5:00 pm82 °FScattered clouds.15 mph55%29.77 "HgN/A
4:30 pm88 °FThundershowers. Scattered clouds.10 mph46%29.77 "HgN/A
4:00 pm88 °FThundershowers. Scattered clouds.8 mph46%29.77 "HgN/A
3:30 pm86 °FSprinkles. Scattered clouds.7 mph52%29.80 "HgN/A
3:00 pm84 °FScattered clouds.7 mph51%29.80 "HgN/A
2:30 pm88 °FScattered clouds.5 mph49%29.80 "HgN/A
2:00 pm88 °FPassing clouds.5 mph46%29.83 "HgN/A
1:30 pm86 °FPassing clouds.8 mph46%29.83 "HgN/A
1:00 pm86 °FPassing clouds.9 mph46%29.83 "HgN/A
12:30 pm84 °FPassing clouds.9 mph51%29.86 "HgN/A
12:00 pm82 °FPassing clouds.8 mph51%29.86 "HgN/A
11:30 am81 °FPassing clouds.8 mph54%29.86 "HgN/A
11:00 am81 °FPassing clouds.8 mph54%29.86 "HgN/A
10:30 am77 °FPassing clouds.9 mph57%29.86 "HgN/A
10:00 am77 °FPassing clouds.8 mph54%29.89 "HgN/A
9:30 am75 °FSunny.10 mph57%29.89 "Hg10 mi
9:00 am75 °FPassing clouds.10 mph57%29.89 "HgN/A
8:30 am73 °FPassing clouds.6 mph57%29.89 "HgN/A
7:30 am70 °FSunny.7 mph64%29.89 "Hg10 mi
7:00 am70 °FPassing clouds.6 mph69%29.86 "HgN/A
6:30 am70 °FSunny.3 mph64%29.89 "Hg10 mi
6:00 am68 °FSunny.3 mph69%29.89 "Hg10 mi
5:30 am68 °FClear.5 mph69%29.89 "Hg10 mi
5:00 am70 °FClear.6 mph64%29.89 "Hg10 mi
4:30 am70 °FClear.5 mph64%29.89 "Hg10 mi
3:30 am70 °FClear.6 mph69%29.89 "Hg10 mi
3:00 am70 °FClear.6 mph69%29.89 "Hg10 mi
2:30 am70 °FPassing clouds.7 mph69%29.89 "HgN/A
2:00 am72 °FPassing clouds.7 mph65%29.92 "HgN/A
1:30 am73 °FPassing clouds.6 mph61%29.92 "HgN/A
1:00 am73 °FPassing clouds.6 mph61%29.92 "HgN/A
12:30 am73 °FPassing clouds.8 mph65%29.92 "HgN/A
12:00 am75 °FPassing clouds.9 mph65%29.92 "HgN/A
11:30 pm
Sun, Jul 23
77 °FPassing clouds.8 mph61%29.92 "HgN/A
11:00 pm77 °FPassing clouds.7 mph61%29.92 "HgN/A
Weather by CustomWeather, © 2017

See weather overviewHow to use our weather pages